                ,  1.165,  1.315,  1.465,  1.615,  1.765,  1.915,  2.065,  2.215,  2.365,  2.515,  2.665,  2.815,  2.965,  3.115,  3.265,  3.415,  3.565,  3.715,  3.865,  4.015,  4.165,  4.315,  4.465,  4.615,  4.765,  4.915,  5.065,  5.215,  5.365,  5.515
2008/12/08 00:00,  999.0,  999.0,   -5.4,   -5.3,   -5.6,   -5.4,   -5.4,   -5.3,   -5.6,   -5.9,   -5.9,   -6.0,   -6.0,   -6.1,   -6.5,   -6.5,   -6.6,   -6.6,   -6.5,   -6.8,   -7.0,   -6.9,   -4.0,  999.0,   -1.5,   -1.5,   -1.5,   -1.4,   -1.6,   -1.4
2008/12/08 00:10,  999.0,  999.0,   -4.8,   -4.8,   -5.0,   -5.3,   -5.2,   -5.5,   -5.8,   -5.9,   -6.1,   -6.2,   -6.3,   -6.3,   -6.3,   -6.4,   -6.3,   -6.4,   -6.4,   -6.5,   -6.5,   -6.4,   -4.4,  999.0,  999.0,   -1.6,   -1.5,   -1.5,   -1.5,   -1.4
2008/12/08 00:20,  999.0,  999.0,   -5.0,   -5.0,   -5.1,   -4.8,   -4.7,   -4.7,   -4.8,   -5.0,   -5.1,   -5.4,   -5.4,   -5.4,   -5.5,   -5.8,   -5.7,   -5.4,   -5.6,   -5.7,   -5.5,   -5.5,   -4.8,  999.0,  999.0,   -1.4,   -1.3,   -1.2,  999.0,   -1.1
2008/12/08 00:30,  999.0,   -5.1,   -5.1,   -5.1,   -4.8,   -4.7,   -4.5,   -4.5,   -4.5,   -4.5,   -4.5,   -4.7,   -4.6,   -4.5,   -4.6,   -4.5,   -4.7,   -4.5,   -4.5,   -4.8,   -4.6,   -4.6,   -4.3,   -2.3,   -1.5,   -1.4,   -1.5,   -1.3,   -1.3,   -1.2
2008/12/08 00:40,  999.0,   -4.9,   -4.9,   -4.8,   -4.7,   -4.7,   -4.5,   -4.3,   -4.3,   -4.4,   -4.4,   -4.2,   -4.3,   -4.2,   -4.4,   -4.4,   -4.6,   -4.5,   -4.6,   -4.7,   -4.5,   -4.5,   -3.9,   -2.4,   -1.8,   -1.7,   -1.5,   -1.5,   -1.3,   -1.6
2008/12/08 00:50,  999.0,   -5.1,   -5.1,   -5.0,   -4.9,   -4.7,   -4.8,   -4.6,   -4.7,   -4.6,   -4.7,   -4.7,   -4.6,   -4.7,   -4.5,   -4.4,   -4.3,   -4.2,   -4.2,   -4.1,   -4.0,   -4.1,   -3.8,   -2.3,   -1.8,   -1.5,  999.0,   -1.3,   -1.1,   -0.4
2008/12/08 01:00,  999.0,  999.0,   -4.5,   -4.7,   -4.9,   -4.9,   -4.8,   -4.6,   -4.6,   -4.6,   -4.6,   -4.3,   -4.0,   -4.3,   -4.6,   -4.6,   -4.7,   -4.8,   -4.7,   -4.7,   -4.5,   -4.6,   -4.0,  999.0,   -1.4,   -1.2,   -1.2,   -1.2,   -1.0,   -0.4
2008/12/08 01:10,  999.0,  999.0,   -4.6,   -4.6,   -5.0,   -5.2,   -5.1,   -5.1,   -4.9,   -5.0,   -5.0,   -4.9,   -5.0,   -4.6,   -4.5,   -4.7,   -4.4,   -4.2,   -4.7,   -4.4,   -4.4,   -4.4,   -3.7,   -2.1,   -1.5,   -1.3,   -1.4,   -0.9,   -1.2,   -1.2
2008/12/08 01:20,  999.0,  999.0,   -4.3,   -4.5,   -4.7,   -4.9,   -5.1,   -5.0,   -5.0,   -4.8,   -4.9,   -4.7,   -4.7,   -4.7,   -4.6,   -4.4,   -4.5,   -4.4,   -4.4,   -4.2,   -4.2,   -4.2,   -3.8,   -2.3,   -1.8,   -1.6,   -1.5,   -1.7,   -1.5,   -1.4
2008/12/08 01:30,  999.0,  999.0,   -4.4,   -4.5,   -4.6,   -4.6,   -4.5,   -4.5,   -4.6,   -4.6,   -4.5,   -4.4,   -4.6,   -4.6,   -4.8,   -4.9,   -5.0,   -5.2,   -5.1,   -5.2,   -5.1,   -5.1,   -4.3,   -2.5,   -1.8,   -1.7,   -1.6,   -1.5,   -1.4,   -1.3
2008/12/08 01:40,  999.0,  999.0,   -5.2,   -4.8,   -4.8,   -4.8,   -4.6,   -4.9,   -4.7,   -4.7,   -4.7,   -4.5,   -4.5,   -4.5,   -4.6,   -4.7,   -4.5,   -4.6,   -4.7,   -4.7,   -4.6,   -4.5,   -3.9,   -2.1,   -1.3,   -1.5,   -1.4,   -1.6,   -1.2,   -1.4
2008/12/08 01:50,  999.0,  999.0,   -3.7,   -3.8,   -3.6,   -3.8,   -3.6,   -3.4,   -3.6,   -3.5,   -3.6,   -3.8,   -3.5,   -3.5,   -3.6,   -3.5,   -3.7,   -3.7,   -3.7,   -3.8,   -3.3,   -3.4,   -3.2,   -2.3,   -1.6,   -1.6,   -1.5,  999.0,   -1.4,  999.0
2008/12/08 02:00,  999.0,   -0.8,   -3.6,   -3.6,   -3.4,   -3.1,   -3.0,   -3.0,   -3.0,   -3.3,   -4.2,   -3.5,   -3.4,   -3.4,   -3.5,  999.0,   -3.1,   -3.2,   -3.0,   -3.1,   -3.2,   -3.5,   -3.3,   -2.1,   -1.6,   -1.6,   -1.7,   -1.7,   -1.4,   -1.4
2008/12/08 02:10,  999.0,   -0.7,   -4.1,   -4.3,   -4.3,   -4.2,   -4.3,   -3.8,  999.0,   -4.1,   -4.0,   -3.7,   -3.8,   -3.8,   -3.6,   -3.7,   -3.9,   -3.5,   -3.5,   -3.6,   -3.8,   -3.5,   -3.0,   -2.2,   -1.6,   -1.6,   -1.5,   -1.7,   -1.4,   -1.4
2008/12/08 02:20,  999.0,  999.0,   -3.8,   -3.9,   -4.0,   -4.1,   -3.9,   -3.9,   -4.3,   -4.1,   -4.3,   -4.1,   -4.0,   -4.1,   -4.0,   -4.0,   -4.2,   -4.0,   -3.9,   -3.9,   -3.6,   -3.6,   -2.5,   -1.9,   -1.8,   -1.6,   -1.5,   -1.5,   -1.6,   -1.5
2008/12/08 02:30,  999.0,   -0.7,   -2.2,   -2.9,   -2.8,   -2.9,   -2.6,   -3.1,   -3.3,   -3.1,   -3.0,   -3.6,   -3.5,   -3.6,   -3.9,   -3.3,   -3.3,   -3.9,   -3.6,   -3.4,   -3.4,   -3.4,   -2.6,   -2.0,   -1.8,   -1.7,   -1.7,   -1.6,   -1.3,   -1.1
2008/12/08 02:40,  999.0,   -0.7,   -1.4,   -2.8,   -2.4,   -2.8,   -2.5,   -2.2,   -2.7,   -2.9,   -3.4,   -3.6,   -3.5,   -3.5,   -3.6,   -3.2,   -3.2,   -3.2,   -3.2,   -3.2,   -3.0,   -3.3,   -2.5,   -1.9,   -1.6,   -1.6,   -1.4,   -1.1,   -1.1,  999.0
2008/12/08 02:50,  999.0,   -0.7,   -0.6,   -2.8,   -2.5,   -2.7,   -0.8,   -2.2,   -2.9,   -3.3,   -3.2,   -3.3,   -3.1,   -3.0,  999.0,  999.0,   -2.9,   -2.6,   -2.0,   -3.0,   -2.7,   -2.7,   -2.7,   -2.0,   -1.6,   -1.2,  999.0,  999.0,  999.0,   -1.5
2008/12/08 03:00,  999.0,   -0.7,   -3.6,   -3.5,   -3.5,   -3.5,   -4.0,   -3.1,   -3.7,   -3.6,   -3.3,   -3.2,  999.0,   -2.7,   -2.6,  999.0,   -3.6,   -4.4,   -3.8,   -4.2,   -3.5,   -3.8,   -3.5,   -2.5,   -1.5,   -1.4,   -1.5,   -1.3,   -1.4,   -1.3
2008/12/08 03:10,  999.0,   -0.6,   -4.5,   -4.4,   -4.7,   -4.6,   -4.9,   -5.0,   -4.9,   -4.7,   -4.4,   -4.5,   -4.6,   -4.8,   -4.7,   -4.9,   -4.7,   -4.8,   -4.7,   -4.7,   -4.8,   -4.7,   -4.3,  999.0,   -1.6,   -1.6,   -1.6,   -1.6,   -1.6,   -1.5
2008/12/08 03:20,  999.0,  999.0,   -4.7,   -5.0,   -5.2,   -5.2,   -5.0,   -4.9,   -4.9,   -4.9,   -4.8,   -4.9,   -5.1,   -5.0,   -5.1,   -5.1,   -5.1,   -4.9,   -5.0,   -4.9,   -4.8,   -5.0,   -4.0,  999.0,   -1.8,   -1.8,   -1.6,   -1.5,   -1.4,   -1.2
2008/12/08 03:30,  999.0,  999.0,   -4.9,   -5.0,   -4.9,   -4.9,   -4.9,   -5.2,   -5.3,   -5.2,   -5.0,   -5.0,   -4.9,   -4.7,   -4.6,   -4.5,   -4.2,   -4.4,   -4.2,   -4.1,   -3.9,   -3.9,   -3.7,   -3.2,   -2.2,   -1.6,   -1.5,   -1.4,   -1.3,   -1.5
2008/12/08 03:40,  999.0,  999.0,   -3.3,   -3.2,   -3.3,   -3.7,   -3.8,   -3.8,   -3.7,   -3.4,   -3.2,   -3.2,   -3.4,   -3.0,   -2.7,   -3.4,   -3.2,   -3.3,   -3.0,   -3.0,   -3.0,   -3.2,   -3.3,   -3.1,  999.0,   -1.3,  999.0,   -1.0,   -1.4,  999.0
2008/12/08 03:50,  999.0,  999.0,   -2.9,   -3.5,   -3.4,   -3.2,   -3.0,   -2.8,   -3.3,   -3.2,   -3.0,   -3.1,   -3.0,   -2.9,   -2.8,   -2.9,   -3.2,   -2.7,   -3.0,   -2.7,   -3.1,   -3.6,   -3.1,   -3.0,   -1.7,   -1.2,   -1.3,  999.0,  999.0,  999.0
2008/12/08 04:00,  999.0,  999.0,  999.0,   -3.5,   -3.7,   -3.5,   -3.2,   -2.3,   -3.3,   -3.0,   -3.2,   -2.1,  999.0,   -3.4,   -2.9,   -2.3,   -3.0,   -2.8,   -3.3,   -2.8,   -3.3,  999.0,  999.0,  999.0,   -1.7,   -1.3,   -1.2,   -1.4,   -1.1,   -1.3
2008/12/08 04:10,  999.0,   -0.6,   -3.2,   -4.1,   -3.9,   -3.8,   -3.5,   -2.4,   -2.8,   -2.7,   -3.2,  999.0,  999.0,  999.0,  999.0,  999.0,  999.0,  999.0,  999.0,  999.0,   -2.6,   -2.7,   -2.7,  999.0,   -1.8,  999.0,   -1.1,   -1.3,   -1.2,   -1.2
2008/12/08 04:20,  999.0,  999.0,   -2.7,   -3.6,   -3.7,   -3.6,   -3.6,   -2.4,   -3.5,  999.0,  999.0,  999.0,  999.0,   -5.1,   -4.3,   -4.5,   -4.5,   -4.6,   -4.2,   -4.2,   -4.2,   -4.4,   -4.2,   -3.7,   -1.7,   -1.4,   -1.4,   -1.4,   -1.3,   -1.3
2008/12/08 04:30,  999.0,  999.0,  999.0,   -3.7,   -3.1,   -3.5,   -3.8,   -1.4,   -3.6,   -3.6,   -4.3,   -4.1,   -4.7,   -4.3,   -4.4,   -4.0,   -4.2,   -4.2,   -4.5,   -4.7,   -4.6,   -4.6,   -4.7,   -4.0,  999.0,   -1.3,   -1.3,   -1.2,   -1.3,   -1.3
2008/12/08 04:40,  999.0,  999.0,   -3.8,   -4.4,   -4.1,   -4.4,  999.0,  999.0,  999.0,  999.0,  999.0,  999.0,  999.0,   -4.5,   -4.6,   -4.7,   -4.2,   -4.6,   -4.7,   -4.7,   -5.2,   -5.3,   -5.0,   -4.5,  999.0,   -1.3,   -1.3,   -1.3,   -1.2,   -1.0
2008/12/08 04:50,  999.0,   -0.5,   -5.1,   -5.2,   -5.4,   -5.3,   -5.3,   -5.3,   -5.3,   -5.3,   -5.7,   -5.6,   -5.5,   -5.5,   -5.5,   -5.4,   -5.3,   -5.5,   -5.3,   -5.5,   -5.3,   -5.3,   -5.6,   -4.1,  999.0,   -1.2,   -1.3,   -1.2,   -1.3,   -1.3
2008/12/08 05:00,  999.0,   -0.6,   -5.5,   -5.6,   -5.7,   -5.6,   -5.6,   -5.9,   -6.2,   -6.2,   -6.3,   -6.3,   -6.4,   -6.2,   -6.2,   -6.3,   -6.1,   -6.0,   -6.2,   -6.2,   -6.0,   -6.0,   -6.1,   -3.8,  999.0,   -1.4,   -1.4,   -1.3,   -1.4,   -1.3
2008/12/08 05:10,  999.0,   -0.5,   -4.7,   -4.7,   -4.7,   -4.7,   -4.6,   -4.6,   -4.7,   -4.8,   -4.8,   -5.0,   -5.1,   -5.2,   -5.0,   -5.4,   -5.4,   -5.3,   -5.3,   -5.3,   -5.2,   -5.4,   -5.3,   -4.3,   -2.1,   -1.5,   -1.4,   -1.3,   -1.2,   -1.2
2008/12/08 05:20,  999.0,  999.0,  999.0,   -4.4,   -4.5,   -4.1,   -4.1,   -4.4,   -4.3,   -4.9,   -4.9,   -5.0,   -4.9,   -5.1,   -5.2,   -4.9,   -5.2,   -4.8,   -5.0,   -5.0,   -4.7,   -4.9,   -5.0,   -4.2,   -1.8,   -1.4,   -1.3,   -1.2,   -1.2,   -1.2
2008/12/08 05:30,  999.0,  999.0,   -4.5,   -4.4,   -4.3,   -4.3,   -4.2,   -4.3,   -4.4,   -4.4,   -4.4,   -4.5,   -4.7,   -4.5,   -4.6,   -4.7,   -4.4,   -4.5,   -4.6,   -4.5,   -4.8,   -4.9,   -4.8,   -4.2,   -1.8,   -1.3,   -1.3,   -1.3,   -1.3,   -1.1
2008/12/08 05:40,  999.0,   -0.5,  999.0,   -4.4,   -4.3,   -4.2,   -4.0,   -4.0,   -4.1,   -4.1,   -4.2,   -4.2,   -3.9,   -4.4,   -4.4,   -4.0,   -4.2,   -3.9,   -4.2,   -4.3,   -4.1,   -4.2,   -3.9,   -3.5,   -1.7,  999.0,   -1.1,   -1.1,  999.0,  999.0
2008/12/08 05:50,  999.0,  999.0,   -2.7,   -4.1,   -4.1,   -3.9,  999.0,   -2.3,   -4.0,   -3.7,   -4.0,   -4.0,   -4.0,   -4.1,   -3.9,   -3.7,   -3.7,   -3.5,   -3.7,   -3.6,   -3.5,   -3.4,   -3.8,   -2.9,  999.0,  999.0,   -1.2,   -1.2,   -1.1,  999.0
2008/12/08 06:00,  999.0,  999.0,  999.0,  999.0,  999.0,  999.0,  999.0,  999.0,  999.0,  999.0,  999.0,  999.0,  999.0,  999.0,  999.0,  999.0,  999.0,  999.0,  999.0,  999.0,  999.0,  999.0,  999.0,  999.0,  999.0,  999.0,  999.0,  999.0,  999.0,  999.0
2008/12/08 06:10,  999.0,  999.0,  999.0,   -3.5,   -3.7,   -3.8,   -4.0,   -3.7,   -3.9,   -3.9,   -3.7,   -3.4,   -3.2,   -2.9,   -3.0,   -2.7,   -2.5,   -2.6,   -2.4,  999.0,  999.0,  999.0,  999.0,  999.0,  999.0,   -1.0,   -1.3,  999.0,   -1.2,  999.0
2008/12/08 06:20,  999.0,  999.0,   -2.2,   -3.0,   -3.2,   -2.9,  999.0,   -3.4,   -3.2,   -3.3,   -3.4,   -3.2,   -3.0,   -2.8,   -3.3,   -3.0,   -2.8,   -2.8,   -2.5,   -2.8,  999.0,   -2.7,  999.0,   -2.2,   -1.3,  999.0,  999.0,  999.0,  999.0,  999.0
2008/12/08 06:30,  999.0,   -0.5,   -0.9,  999.0,   -2.0,  999.0,  999.0,  999.0,  999.0,  999.0,  999.0,  999.0,   -3.1,   -3.2,   -3.1,   -2.6,   -3.1,   -2.5,   -2.6,   -2.8,  999.0,   -2.6,   -2.6,   -2.3,   -1.3,  999.0,  999.0,  999.0,  999.0,  999.0
2008/12/08 06:40,  999.0,   -0.5,   -0.5,  999.0,  999.0,   -2.3,   -0.1,   -0.2,  999.0,  999.0,  999.0,  999.0,  999.0,  999.0,   -2.7,   -2.2,  999.0,  999.0,  999.0,  999.0,   -1.8,  999.0,  999.0,   -1.8,   -1.1,  999.0,  999.0,   -0.4,  999.0,  999.0
2008/12/08 06:50,  999.0,   -0.5,   -1.1,  999.0,  999.0,  999.0,   -0.2,  999.0,  999.0,  999.0,  999.0,  999.0,  999.0,   -2.5,  999.0,   -2.1,   -2.4,   -2.4,   -2.2,  999.0,  999.0,   -2.1,   -2.2,  999.0,  999.0,  999.0,  999.0,  999.0,  999.0,   -1.2
2008/12/08 07:00,  999.0,   -0.5,   -0.6,  999.0,  999.0,  999.0,   -0.3,   -0.3,  999.0,  999.0,  999.0,  999.0,  999.0,  999.0,  999.0,  999.0,  999.0,  999.0,  999.0,  999.0,  999.0,  999.0,  999.0,  999.0,  999.0,  999.0,  999.0,  999.0,  999.0,  999.0
2008/12/08 07:10,  999.0,   -0.5,   -0.8,  999.0,  999.0,  999.0,   -0.2,   -0.3,  999.0,  999.0,  999.0,  999.0,  999.0,  999.0,  999.0,  999.0,  999.0,  999.0,  999.0,  999.0,  999.0,  999.0,  999.0,  999.0,  999.0,  999.0,  999.0,  999.0,  999.0,  999.0
2008/12/08 07:20,  999.0,   -0.5,   -0.7,  999.0,  999.0,  999.0,  999.0,   -0.2,  999.0,  999.0,  999.0,  999.0,  999.0,  999.0,  999.0,  999.0,  999.0,  999.0,  999.0,  999.0,  999.0,  999.0,  999.0,  999.0,  999.0,   -0.8,  999.0,  999.0,   -1.3,  999.0
2008/12/08 07:30,  999.0,   -0.5,   -0.6,  999.0,    0.1,  999.0,   -0.1,   -0.1,  999.0,  999.0,  999.0,  999.0,  999.0,  999.0,  999.0,  999.0,  999.0,  999.0,  999.0,  999.0,  999.0,  999.0,  999.0,  999.0,  999.0,  999.0,  999.0,  999.0,  999.0,  999.0
2008/12/08 07:40,  999.0,   -0.5,   -0.7,  999.0,  999.0,    0.2,   -0.1,   -0.1,  999.0,  999.0,  999.0,  999.0,  999.0,  999.0,  999.0,  999.0,  999.0,  999.0,  999.0,  999.0,  999.0,  999.0,  999.0,  999.0,  999.0,  999.0,  999.0,   -1.1,  999.0,  999.0
2008/12/08 07:50,  999.0,   -0.5,   -0.7,  999.0,  999.0,  999.0,   -0.4,   -0.2,  999.0,  999.0,  999.0,  999.0,  999.0,  999.0,  999.0,  999.0,  999.0,  999.0,  999.0,  999.0,  999.0,  999.0,  999.0,  999.0,   -1.8,  999.0,  999.0,  999.0,  999.0,  999.0
2008/12/08 08:00,  999.0,   -0.5,   -0.7,  999.0,  999.0,   -0.1,   -0.2,   -0.2,  999.0,  999.0,  999.0,  999.0,  999.0,  999.0,  999.0,  999.0,  999.0,  999.0,  999.0,  999.0,   -1.7,   -2.0,  999.0,   -1.7,   -1.4,  999.0,  999.0,  999.0,  999.0,  999.0
2008/12/08 08:10,  999.0,   -0.5,   -0.7,  999.0,  999.0,  999.0,   -0.2,   -0.3,  999.0,  999.0,  999.0,  999.0,  999.0,  999.0,  999.0,  999.0,  999.0,  999.0,  999.0,  999.0,  999.0,  999.0,  999.0,   -1.0,  999.0,  999.0,  999.0,  999.0,  999.0,  999.0
2008/12/08 08:20,  999.0,   -0.5,   -0.6,  999.0,  999.0,  999.0,   -0.2,   -0.1,  999.0,  999.0,  999.0,  999.0,  999.0,  999.0,  999.0,  999.0,  999.0,  999.0,  999.0,  999.0,  999.0,  999.0,   -1.7,  999.0,  999.0,  999.0,  999.0,  999.0,  999.0,  999.0
2008/12/08 08:30,  999.0,   -0.5,   -0.6,  999.0,  999.0,  999.0,   -0.2,   -0.2,  999.0,  999.0,  999.0,  999.0,  999.0,  999.0,  999.0,  999.0,  999.0,  999.0,  999.0,  999.0,  999.0,  999.0,   -1.6,   -2.3,   -1.7,   -0.8,  999.0,  999.0,  999.0,  999.0
2008/12/08 08:40,  999.0,   -0.5,   -0.6,  999.0,  999.0,   -0.3,   -0.2,   -0.3,  999.0,  999.0,  999.0,  999.0,  999.0,  999.0,  999.0,  999.0,  999.0,  999.0,   -2.2,   -2.5,  999.0,   -2.4,   -2.3,   -2.2,   -1.6,   -1.3,   -1.3,  999.0,  999.0,  999.0
2008/12/08 08:50,  999.0,   -0.5,   -0.6,  999.0,    0.2,  999.0,   -0.2,   -0.2,  999.0,  999.0,  999.0,  999.0,  999.0,  999.0,  999.0,  999.0,  999.0,  999.0,   -2.3,   -2.9,   -3.5,   -2.9,   -2.8,   -2.4,   -1.7,   -1.6,  999.0,  999.0,  999.0,  999.0
2008/12/08 09:00,  999.0,  999.0,  999.0,  999.0,  999.0,  999.0,  999.0,  999.0,  999.0,  999.0,  999.0,  999.0,  999.0,  999.0,  999.0,  999.0,  999.0,  999.0,  999.0,  999.0,  999.0,  999.0,  999.0,  999.0,  999.0,  999.0,  999.0,  999.0,  999.0,  999.0
2008/12/08 09:10,  999.0,   -0.4,   -0.6,  999.0,  999.0,   -0.4,   -0.4,   -0.3,  999.0,  999.0,  999.0,  999.0,   -3.4,  999.0,  999.0,   -3.0,   -3.1,   -3.0,  999.0,   -2.6,   -3.0,   -2.9,   -3.3,   -2.3,   -1.5,   -1.5,  999.0,  999.0,  999.0,  999.0
2008/12/08 09:20,  999.0,   -0.4,   -1.3,   -2.8,   -2.5,   -2.1,  999.0,  999.0,  999.0,  999.0,   -2.8,   -2.6,   -3.2,   -2.5,   -2.9,   -3.0,   -3.2,   -3.0,   -2.5,   -3.1,   -3.0,   -3.2,   -3.0,   -2.2,   -1.7,  999.0,  999.0,  999.0,  999.0,  999.0
2008/12/08 09:30,  999.0,   -0.4,   -2.5,   -3.6,   -3.3,   -3.1,   -3.5,  999.0,   -2.6,   -3.5,   -3.2,   -3.9,   -3.7,   -3.6,   -3.4,   -3.5,   -3.1,   -3.4,   -3.5,   -3.7,   -3.6,   -3.9,   -3.6,   -2.5,   -1.9,   -1.7,   -1.5,   -1.5,   -2.1,  999.0
2008/12/08 09:40,  999.0,  999.0,  999.0,   -5.8,   -5.7,   -5.6,   -5.0,  999.0,   -4.3,   -4.4,   -4.5,   -4.8,   -4.6,   -4.9,  999.0,  999.0,  999.0,  999.0,  999.0,  999.0,   -6.1,   -5.9,   -4.2,   -2.4,   -1.9,   -1.6,   -1.3,   -1.1,   -0.9,  999.0
2008/12/08 09:50,  999.0,  999.0,   -3.9,   -3.8,   -4.2,   -4.9,   -4.2,   -4.5,   -4.7,   -4.5,   -4.6,   -4.7,   -4.6,   -4.5,   -4.6,   -4.5,   -4.4,   -4.5,   -4.7,   -4.9,   -4.9,   -5.0,   -4.0,   -2.5,   -1.9,   -1.8,   -1.5,   -1.3,   -1.2,   -1.1
2008/12/08 10:00,  999.0,  999.0,   -5.8,   -5.9,   -5.7,   -5.6,   -5.6,   -5.8,   -5.7,   -5.8,   -6.2,   -6.2,   -6.2,   -6.0,   -5.9,   -5.6,   -5.6,   -5.9,   -6.2,   -6.0,   -6.0,   -6.0,   -4.7,  999.0,   -2.0,   -1.7,   -1.5,   -1.3,   -1.2,   -1.0
2008/12/08 10:10,  999.0,  999.0,   -4.0,   -4.0,   -3.8,   -3.7,   -4.0,   -4.1,   -3.6,   -3.8,   -4.3,   -4.4,   -4.1,   -4.1,   -4.1,   -4.2,   -4.2,   -3.4,   -3.7,   -3.6,   -3.5,   -3.2,   -3.4,   -2.2,   -1.6,   -1.5,   -1.4,   -1.2,   -1.2,   -1.0
2008/12/08 10:20,  999.0,   -0.3,   -3.7,   -3.9,   -4.0,   -4.2,   -4.1,   -4.2,   -4.3,   -4.3,   -4.3,   -4.5,   -4.4,   -4.4,   -4.4,   -4.2,   -4.1,   -4.0,   -3.9,   -3.8,   -3.8,   -3.6,   -3.4,   -2.2,   -1.6,   -1.2,   -0.9,   -0.6,  999.0,  999.0
2008/12/08 10:30,  999.0,  999.0,  999.0,  999.0,  999.0,  999.0,  999.0,  999.0,  999.0,  999.0,  999.0,  999.0,  999.0,  999.0,  999.0,  999.0,  999.0,  999.0,  999.0,  999.0,  999.0,  999.0,  999.0,  999.0,  999.0,  999.0,  999.0,  999.0,  999.0,  999.0
2008/12/08 10:40,  999.0,   -0.3,  999.0,   -4.1,   -3.4,   -3.1,   -3.0,   -3.5,   -4.6,   -3.4,   -4.8,   -4.8,   -4.7,   -4.2,   -4.1,   -4.0,   -3.5,   -3.7,   -3.6,   -3.4,   -3.5,   -3.5,   -3.3,   -2.1,   -1.6,   -1.4,   -1.5,   -1.2,   -0.6,   -0.7
2008/12/08 10:50,  999.0,   -0.3,   -1.5,   -2.9,   -2.5,   -2.7,   -2.7,   -2.7,   -2.9,   -2.4,  999.0,  999.0,  999.0,  999.0,  999.0,  999.0,   -2.5,   -2.9,   -2.9,   -2.7,   -2.7,   -2.9,  999.0,   -1.9,   -1.3,  999.0,  999.0,  999.0,   -0.1,  999.0
2008/12/08 11:00,  999.0,  999.0,   -1.6,   -2.5,   -2.6,   -2.5,   -2.9,   -2.3,   -2.7,  999.0,  999.0,  999.0,  999.0,   -2.9,  999.0,  999.0,   -2.3,   -2.1,   -2.9,   -2.2,   -2.4,   -2.6,   -2.6,   -2.3,   -1.6,  999.0,  999.0,  999.0,  999.0,  999.0
2008/12/08 11:10,  999.0,   -0.4,   -0.9,   -2.3,   -2.0,   -2.1,   -1.5,   -1.2,   -2.0,   -1.8,  999.0,  999.0,  999.0,  999.0,  999.0,   -2.4,   -1.6,   -1.7,   -1.6,   -1.6,   -1.9,   -1.5,   -1.7,   -2.3,   -1.2,  999.0,  999.0,  999.0,  999.0,  999.0
2008/12/08 11:20,  999.0,   -0.3,   -1.2,   -2.1,   -2.0,   -2.2,   -1.9,   -2.8,   -2.6,   -2.7,   -3.0,   -2.9,   -2.9,   -3.0,   -2.8,   -2.5,   -2.7,   -2.8,   -2.7,   -2.7,   -2.5,   -2.3,   -2.3,   -2.0,   -1.6,   -1.5,   -0.7,  999.0,  999.0,  999.0
2008/12/08 11:30,  999.0,  999.0,   -0.9,   -2.4,   -2.5,   -2.5,   -2.6,   -2.7,   -2.7,   -2.7,   -2.7,   -2.8,   -2.9,   -2.8,   -2.9,   -2.8,   -2.7,   -2.6,   -2.7,   -2.5,   -2.2,   -2.0,   -2.2,   -2.1,   -1.7,   -2.0,   -0.7,   -1.3,  999.0,  999.0
2008/12/08 11:40,  999.0,   -0.3,   -1.7,   -2.3,   -2.4,   -2.4,   -2.3,   -2.2,   -2.3,   -2.3,   -2.4,   -2.5,   -2.5,   -2.5,   -2.4,   -2.3,   -2.2,   -2.1,   -2.1,   -2.1,   -2.0,   -1.9,   -1.7,   -2.0,   -1.2,   -1.4,   -1.0,   -0.1,  999.0,  999.0
2008/12/08 11:50,  999.0,   -0.3,   -1.1,   -1.8,   -1.6,   -1.7,   -1.8,   -1.9,   -1.7,   -1.5,   -1.5,   -2.3,   -1.7,   -2.2,   -2.0,   -2.3,   -2.0,   -2.1,   -2.0,   -2.1,   -2.1,   -1.9,   -1.6,   -2.1,   -1.5,   -1.4,   -1.5,   -1.9,  999.0,  999.0
2008/12/08 12:00,  999.0,   -0.3,   -2.0,   -2.1,   -2.8,   -2.4,   -2.0,   -2.0,   -1.9,   -2.8,   -3.0,   -3.0,   -2.9,   -3.0,   -2.1,   -2.0,   -2.1,   -3.1,   -3.0,   -2.9,   -2.6,   -2.6,   -2.6,   -1.7,   -1.1,   -1.3,   -1.5,  999.0,  999.0,  999.0
2008/12/08 12:10,  999.0,   -0.3,   -2.9,   -3.0,   -3.0,   -2.4,   -2.2,   -2.0,   -2.3,   -2.1,   -2.3,   -2.4,   -2.7,   -2.6,   -2.5,   -2.7,   -2.4,   -2.3,   -2.1,   -2.5,   -2.6,   -2.4,   -2.3,   -1.9,   -1.3,   -1.1,   -2.5,  999.0,  999.0,  999.0
2008/12/08 12:20,  999.0,   -0.3,   -2.1,   -2.3,   -2.2,   -2.3,   -2.3,   -3.0,   -2.3,   -2.9,   -2.7,   -2.8,   -2.6,   -2.6,   -2.4,   -2.1,   -2.2,   -2.1,   -1.9,   -2.0,   -1.7,   -1.8,   -1.7,   -2.0,   -1.4,   -1.3,   -1.2,   -0.9,   -1.3,   -1.2
2008/12/08 12:30,  999.0,   -0.3,   -2.0,   -2.1,   -2.2,   -2.3,   -2.3,   -2.5,   -2.6,   -2.5,   -2.7,   -2.5,   -2.5,   -2.1,   -1.8,   -1.9,   -1.8,   -1.5,   -2.0,   -1.8,   -1.4,   -1.6,  999.0,  999.0,   -0.9,  999.0,   -1.2,  999.0,  999.0,  999.0
2008/12/08 12:40,  999.0,   -0.3,   -1.7,   -1.8,   -2.4,   -2.3,   -2.4,   -2.4,   -2.5,   -2.5,   -2.5,   -2.5,   -2.5,   -2.4,   -2.6,   -2.4,   -2.4,   -2.1,   -1.9,   -1.8,   -1.7,   -1.6,   -1.2,   -1.3,   -1.2,  999.0,  999.0,  999.0,  999.0,  999.0
2008/12/08 12:50,  999.0,   -1.6,   -2.2,   -2.3,   -2.2,   -1.9,   -2.1,   -1.9,   -1.8,   -1.8,   -1.5,   -1.7,   -1.6,   -2.2,   -1.5,   -1.7,   -1.5,   -1.2,   -0.8,   -1.2,   -0.8,   -1.4,   -0.9,  999.0,  999.0,  999.0,  999.0,  999.0,  999.0,  999.0
2008/12/08 13:00,  999.0,   -2.0,   -2.1,   -2.2,   -2.1,   -1.8,   -1.7,   -1.7,   -1.7,   -1.6,   -1.6,   -1.4,   -1.2,   -1.6,   -0.8,   -1.1,   -0.9,   -1.0,  999.0,  999.0,  999.0,  999.0,  999.0,   -2.3,  999.0,  999.0,  999.0,  999.0,  999.0,  999.0
2008/12/08 13:10,  999.0,  999.0,   -1.3,   -2.6,   -1.9,   -1.9,   -2.0,   -1.7,   -1.7,   -1.9,   -2.0,   -1.9,   -1.7,   -1.5,   -1.3,   -1.2,   -1.2,   -1.5,   -0.8,   -0.7,   -1.7,   -1.3,  999.0,  999.0,  999.0,  999.0,  999.0,  999.0,  999.0,  999.0
2008/12/08 13:20,  999.0,   -1.5,   -2.5,   -3.0,   -2.9,   -2.7,   -2.7,   -2.7,   -2.6,   -2.3,   -2.2,   -2.1,   -2.1,   -2.1,   -1.8,   -1.6,   -1.9,   -1.9,   -1.8,   -1.6,   -1.8,   -1.6,   -1.2,   -1.0,  999.0,  999.0,  999.0,  999.0,  999.0,  999.0
2008/12/08 13:30,  999.0,   -4.0,   -3.6,   -3.4,   -3.3,   -3.3,   -3.2,   -3.1,   -2.7,   -2.9,   -2.9,   -2.6,   -2.6,   -2.4,   -2.4,   -2.4,   -2.4,   -2.2,   -2.1,   -1.9,   -1.8,   -1.9,   -1.8,   -1.6,   -1.3,   -1.6,  999.0,  999.0,  999.0,  999.0
2008/12/08 13:40,  999.0,   -3.0,   -3.3,   -3.4,   -3.2,   -3.1,   -3.0,   -2.9,   -3.0,   -2.9,   -3.0,   -2.8,   -2.8,   -2.7,   -2.6,   -2.4,   -2.4,   -2.3,   -2.2,   -2.1,   -2.0,   -1.8,   -1.7,   -1.2,   -1.1,   -1.1,   -0.9,   -0.8,   -1.0,  999.0
2008/12/08 13:50,  999.0,   -0.3,   -2.5,   -2.2,   -2.5,   -2.3,   -2.3,   -2.2,   -2.3,   -2.3,   -2.4,   -2.5,   -2.3,   -2.4,   -2.5,   -2.1,   -2.2,   -2.1,   -2.0,   -1.9,   -1.9,   -1.5,   -1.2,   -1.2,   -0.8,  999.0,  999.0,  999.0,  999.0,  999.0
2008/12/08 14:00,   -0.2,   -0.3,   -3.7,   -3.0,   -2.7,   -2.5,   -2.5,   -2.5,   -2.5,   -2.4,   -2.5,   -2.5,   -2.9,   -2.4,   -2.4,   -2.5,   -2.8,   -2.9,   -2.5,   -1.7,   -1.8,   -1.6,   -1.3,   -1.6,   -1.2,  999.0,  999.0,  999.0,  999.0,  999.0
2008/12/08 14:10,   -0.2,   -0.3,   -2.7,   -2.4,   -2.4,   -2.4,   -2.2,   -2.0,   -2.3,   -2.3,   -2.3,   -2.5,   -2.7,   -3.0,   -3.1,   -3.1,   -2.9,   -3.1,   -3.0,   -2.9,   -2.6,   -2.0,   -1.7,   -1.7,   -1.4,  999.0,  999.0,  999.0,  999.0,  999.0
2008/12/08 14:20,  999.0,  999.0,   -5.3,   -4.9,   -4.8,   -4.5,   -4.6,   -4.8,   -3.1,   -3.3,   -3.6,   -4.8,   -3.4,   -4.6,   -3.0,   -3.9,   -3.8,   -4.2,   -3.7,   -4.2,   -4.1,   -3.6,  999.0,   -2.3,   -1.5,   -1.5,   -1.3,   -1.1,   -0.9,  999.0
2008/12/08 14:30,  999.0,  999.0,  999.0,   -2.9,   -2.6,   -2.8,   -2.7,   -2.6,   -3.0,   -2.8,   -3.0,   -3.6,   -5.2,   -5.3,   -5.2,   -4.8,   -4.3,   -4.0,   -4.1,   -4.9,   -4.6,   -4.4,   -3.7,   -2.1,   -1.5,   -1.0,   -1.1,   -1.0,  999.0,  999.0
2008/12/08 14:40,  999.0,   -0.3,   -4.6,   -4.3,   -4.7,   -3.9,   -3.9,   -3.9,   -3.9,   -4.4,   -4.4,   -4.1,   -4.2,   -4.1,   -4.1,   -4.0,   -3.8,   -4.2,   -3.6,   -4.6,   -5.1,   -4.8,   -4.2,   -1.9,   -1.4,   -1.3,   -1.4,   -1.3,   -1.4,   -1.1
2008/12/08 14:50,  999.0,   -0.4,   -3.8,   -3.7,   -3.4,   -3.4,   -3.8,   -2.8,   -3.0,   -3.5,   -3.5,   -4.5,   -5.5,   -5.1,   -4.8,   -4.6,   -4.2,   -3.9,   -4.3,   -5.3,   -4.9,   -5.0,   -4.4,   -2.4,   -2.0,   -1.5,   -0.7,   -1.0,   -1.1,   -1.0
2008/12/08 15:00,  999.0,  999.0,  999.0,  999.0,  999.0,  999.0,  999.0,  999.0,  999.0,  999.0,  999.0,  999.0,  999.0,  999.0,  999.0,  999.0,  999.0,  999.0,  999.0,  999.0,  999.0,  999.0,  999.0,  999.0,  999.0,  999.0,  999.0,  999.0,  999.0,  999.0
2008/12/08 15:10,  999.0,   -0.3,  999.0,   -1.9,   -2.2,   -2.2,   -1.8,   -2.4,   -2.1,   -2.2,   -2.1,   -1.8,   -2.0,   -2.1,   -2.5,  999.0,   -2.3,   -2.2,   -1.7,  999.0,   -6.1,   -2.5,  999.0,   -2.2,   -1.2,   -1.0,  999.0,   -0.6,  999.0,  999.0
2008/12/08 15:20,  999.0,   -0.3,   -0.4,   -2.9,   -2.7,   -2.9,   -2.8,  999.0,  999.0,  999.0,  999.0,   -3.5,   -3.1,   -3.6,   -3.2,   -3.5,   -3.7,   -3.8,   -4.3,   -4.3,   -4.3,   -4.4,   -3.7,   -2.3,  999.0,  999.0,  999.0,  999.0,  999.0,  999.0
2008/12/08 15:30,  999.0,  999.0,  999.0,  999.0,  999.0,  999.0,  999.0,  999.0,  999.0,  999.0,  999.0,  999.0,  999.0,  999.0,  999.0,  999.0,  999.0,  999.0,  999.0,  999.0,  999.0,  999.0,  999.0,  999.0,  999.0,  999.0,  999.0,  999.0,  999.0,  999.0
2008/12/08 15:40,  999.0,  999.0,   -0.3,   -3.5,   -3.3,   -3.3,   -3.0,   -3.2,   -3.2,   -3.3,   -3.9,   -3.7,  999.0,   -4.7,  999.0,  999.0,  999.0,  999.0,  999.0,   -4.8,  999.0,  999.0,   -2.8,   -2.3,  999.0,  999.0,  999.0,  999.0,   -1.5,  999.0
2008/12/08 15:50,  999.0,  999.0,  999.0,   -3.5,   -4.3,   -3.8,   -4.3,   -4.2,   -4.2,   -4.4,   -4.5,   -4.9,   -4.5,   -3.6,   -2.4,   -2.4,   -2.1,   -1.9,   -1.4,   -1.4,  999.0,   -1.6,   -2.5,   -2.0,  999.0,  999.0,   -1.6,   -1.3,  999.0,  999.0
2008/12/08 16:00,  999.0,   -0.3,   -0.4,  999.0,  999.0,   -5.0,   -4.6,  999.0,   -2.0,   -2.0,   -2.0,  999.0,  999.0,   -2.2,   -2.1,   -1.8,  999.0,  999.0,  999.0,  999.0,  999.0,  999.0,  999.0,   -1.2,  999.0,  999.0,  999.0,  999.0,  999.0,  999.0
2008/12/08 16:10,  999.0,  999.0,   -0.4,  999.0,   -5.7,   -5.5,   -5.4,   -5.1,  999.0,   -5.1,   -5.3,   -5.6,   -5.5,   -6.0,   -6.0,  999.0,  999.0,  999.0,  999.0,  999.0,  999.0,  999.0,  999.0,   -1.9,  999.0,  999.0,  999.0,  999.0,   -1.7,   -1.4
2008/12/08 16:20,  999.0,  999.0,   -5.7,   -5.5,   -5.6,   -5.5,   -5.5,   -5.7,   -5.9,   -5.9,   -5.9,   -6.0,   -6.0,   -5.9,   -5.6,   -5.6,   -5.5,   -5.5,   -5.7,   -5.5,   -5.6,   -5.1,   -3.1,   -2.0,   -2.0,   -1.6,   -1.4,   -1.5,   -1.5,   -1.5
2008/12/08 16:30,  999.0,   -5.4,   -5.5,   -5.6,   -5.5,   -5.4,   -5.3,   -5.2,   -5.1,   -4.9,   -4.8,   -4.9,   -4.8,   -4.7,   -4.8,   -4.9,   -4.9,   -5.1,   -5.0,   -5.0,   -4.9,   -4.8,   -3.3,   -1.9,   -1.4,   -1.2,   -1.3,   -1.2,   -1.2,   -1.2
2008/12/08 16:40,  999.0,   -5.7,   -5.1,   -5.1,   -5.2,   -5.3,   -5.5,   -5.8,   -6.0,   -6.1,   -6.2,   -6.2,   -6.2,   -6.1,   -5.9,   -5.6,   -5.6,   -5.4,   -5.3,   -5.2,   -5.2,   -5.2,   -3.4,   -2.0,   -1.7,   -1.4,   -1.2,   -1.2,   -1.1,   -1.1
2008/12/08 16:50,  999.0,   -5.2,   -5.4,   -5.4,   -5.4,   -5.4,   -5.5,   -5.7,   -6.0,   -6.1,   -6.5,   -6.7,   -6.7,   -6.9,   -6.8,   -6.8,   -6.9,   -6.5,   -6.6,   -6.7,   -6.5,   -6.3,   -4.4,  999.0,   -1.4,   -1.3,   -1.0,  999.0,   -1.1,   -1.1
2008/12/08 17:00,  999.0,   -5.4,   -5.3,   -5.3,   -5.3,   -5.6,   -5.6,   -5.7,   -5.8,   -5.6,   -5.7,   -5.7,   -5.7,   -5.8,   -5.8,   -5.6,   -5.6,   -5.4,   -5.3,   -5.1,   -5.0,   -4.6,   -4.0,  999.0,   -1.3,   -1.0,   -1.2,   -1.0,   -1.1,   -1.1
2008/12/08 17:10,  999.0,  999.0,   -3.6,   -3.9,   -3.8,   -4.1,   -3.9,   -4.0,   -3.8,   -4.0,   -3.9,   -4.1,   -4.2,   -4.1,   -4.1,   -4.1,   -4.3,   -3.9,   -4.1,   -3.7,   -3.6,   -3.1,   -3.6,   -2.2,   -1.2,  999.0,  999.0,   -0.7,   -1.0,   -1.0
2008/12/08 17:20,  999.0,  999.0,   -4.4,   -4.6,   -4.7,   -4.8,   -5.1,   -5.0,   -5.0,   -5.0,   -4.9,   -4.9,   -4.8,   -4.9,   -4.8,   -4.9,   -4.9,   -4.5,   -4.9,   -4.8,   -4.7,   -5.1,   -5.0,   -2.2,   -1.5,   -1.2,   -1.1,   -0.9,   -0.9,   -1.1
2008/12/08 17:30,  999.0,  999.0,  999.0,   -6.4,   -6.2,   -6.2,   -6.0,   -6.1,   -6.0,   -6.2,   -6.0,   -5.9,   -5.7,   -5.7,   -5.8,   -5.8,   -5.6,   -5.9,   -5.9,   -6.4,  999.0,   -6.4,   -5.6,  999.0,   -1.6,   -1.2,   -1.1,   -0.5,   -1.0,   -1.0
2008/12/08 17:40,  999.0,   -0.3,   -4.0,   -5.2,   -5.3,   -4.7,   -4.9,   -5.0,   -5.3,   -5.7,   -5.5,   -5.7,   -5.8,   -6.2,   -6.5,   -6.6,   -6.4,   -6.0,   -5.9,   -6.4,   -6.3,   -6.4,   -5.0,  999.0,   -1.7,   -1.5,   -1.4,   -1.3,   -1.0,   -1.1
2008/12/08 17:50,  999.0,  999.0,   -4.3,   -4.3,   -4.3,   -4.3,   -4.4,   -4.5,   -4.3,   -4.4,   -4.3,   -4.4,   -4.6,   -4.6,   -4.5,   -4.9,   -5.0,   -5.3,   -5.5,   -5.5,   -5.5,   -5.9,   -5.1,  999.0,  999.0,   -1.5,   -1.4,   -1.2,   -1.2,   -1.0
2008/12/08 18:00,  999.0,   -5.8,   -4.9,   -5.7,   -5.8,   -6.0,   -6.2,   -6.4,   -6.5,   -6.5,   -6.6,   -6.9,   -6.7,   -6.9,   -6.9,   -6.9,   -6.8,   -6.9,   -7.0,   -7.2,   -7.1,   -7.1,   -4.4,  999.0,   -2.0,   -1.6,   -1.6,   -1.5,   -1.4,   -1.3
2008/12/08 18:10,  999.0,   -6.2,  999.0,   -6.5,   -6.8,   -6.8,   -7.1,   -7.1,   -7.2,   -7.2,   -7.2,   -7.3,   -7.2,   -7.3,   -7.4,   -7.4,   -7.5,   -7.3,   -7.6,   -7.6,   -7.9,   -7.6,   -4.6,  999.0,  999.0,   -1.6,   -1.5,   -1.5,   -1.3,   -1.2
2008/12/08 18:20,  999.0,   -6.4,   -6.7,   -6.7,   -6.8,   -7.0,   -7.0,   -7.0,   -7.1,   -7.2,   -7.3,   -7.2,   -7.3,   -7.3,   -7.4,   -7.4,   -7.4,   -7.5,   -7.5,   -7.5,   -7.6,   -7.5,  999.0,  999.0,  999.0,   -1.6,   -1.5,   -1.4,   -1.1,   -1.2
2008/12/08 18:30,  999.0,   -6.3,   -6.2,   -6.1,   -6.4,   -6.3,   -6.4,   -6.4,   -6.6,   -6.6,   -6.7,   -6.8,   -6.7,   -6.8,   -6.9,   -6.9,   -7.1,   -7.1,   -7.1,   -7.1,   -7.0,   -6.9,   -3.9,  999.0,   -1.9,   -1.7,   -1.6,   -1.4,   -1.4,   -1.3
2008/12/08 18:40,  999.0,  999.0,  999.0,   -5.2,   -4.8,   -4.9,   -5.2,   -4.6,   -4.9,   -4.9,   -4.8,   -4.7,   -4.9,   -4.9,   -4.9,   -5.0,   -4.9,   -4.9,   -4.7,   -4.7,   -4.8,   -4.6,   -4.4,   -2.5,   -1.8,   -1.6,   -1.5,   -1.4,   -1.3,   -1.1
2008/12/08 18:50,  999.0,   -5.5,   -5.8,   -5.9,   -6.1,   -6.0,   -6.0,   -6.2,   -6.1,   -6.2,   -6.1,   -5.9,   -5.9,   -5.8,   -6.0,   -6.2,   -6.3,   -5.4,   -4.6,   -4.3,   -4.4,   -5.1,   -4.3,   -2.2,   -1.6,   -1.5,   -1.4,   -1.2,   -1.3,   -1.3
2008/12/08 19:00,  999.0,  999.0,   -5.5,   -5.7,   -5.8,   -5.8,   -5.9,   -5.9,   -6.0,   -5.8,   -6.0,   -6.0,   -6.1,   -6.1,   -6.2,   -6.4,   -6.6,   -6.6,   -6.6,   -6.4,   -6.6,   -6.4,   -4.4,  999.0,   -1.7,   -1.6,   -1.5,   -1.4,   -1.4,   -1.3
2008/12/08 19:10,  999.0,   -6.6,   -4.8,   -5.1,   -6.1,   -5.7,   -5.2,   -4.4,   -5.0,   -4.9,   -5.0,   -4.9,   -4.8,   -4.7,   -4.7,   -4.9,   -5.0,   -5.1,   -5.0,   -5.5,   -5.5,   -5.6,   -4.7,  999.0,   -1.9,   -1.7,   -1.6,   -1.4,   -1.4,   -1.4
2008/12/08 19:20,  999.0,  999.0,   -6.0,   -6.0,   -5.9,   -5.8,   -6.0,   -6.0,   -5.9,   -5.9,   -5.8,   -6.1,   -6.2,   -6.0,   -6.2,   -6.3,   -6.3,   -6.4,   -6.3,   -6.3,   -6.3,   -6.1,   -5.0,  999.0,   -1.8,   -1.4,   -1.4,   -1.3,   -1.4,   -1.3
2008/12/08 19:30,  999.0,   -5.9,   -5.7,   -6.1,   -6.1,   -6.3,   -6.2,   -6.0,   -6.0,   -5.7,   -5.8,   -5.9,   -5.8,   -5.8,   -5.9,   -6.0,   -6.3,   -6.3,   -6.2,   -6.5,   -6.2,   -5.7,   -4.1,   -2.6,   -1.8,   -1.5,   -1.4,   -1.3,   -1.3,   -1.2
2008/12/08 19:40,  999.0,  999.0,   -5.2,   -4.8,   -5.0,   -5.0,   -5.2,   -4.4,   -5.0,   -4.9,   -5.2,   -5.2,   -5.1,   -5.1,   -5.0,   -5.0,   -5.1,   -5.3,   -5.2,   -5.3,   -5.0,   -5.0,   -4.1,   -2.6,   -1.7,   -1.3,   -1.3,   -1.2,   -1.2,   -1.1
2008/12/08 19:50,  999.0,  999.0,   -4.6,   -4.6,   -4.7,   -4.6,   -4.8,   -4.7,   -4.6,   -4.7,   -4.8,   -4.7,   -4.6,   -4.3,   -4.3,   -4.2,   -4.3,   -4.4,   -4.3,   -4.5,   -4.5,   -4.0,   -3.7,   -1.9,   -1.3,   -1.1,   -1.0,   -1.2,   -0.9,   -1.2
2008/12/08 20:00,  999.0,  999.0,  999.0,   -4.0,  999.0,   -3.8,  999.0,   -3.8,   -3.7,   -2.9,   -2.3,   -3.0,   -3.1,   -3.3,   -3.5,   -3.0,   -3.0,  999.0,   -2.8,   -3.3,  999.0,  999.0,  999.0,   -2.0,  999.0,  999.0,  999.0,  999.0,  999.0,  999.0
2008/12/08 20:10,   -0.3,   -0.5,  999.0,  999.0,  999.0,  999.0,   -0.2,   -0.2,  999.0,  999.0,  999.0,  999.0,  999.0,  999.0,  999.0,  999.0,  999.0,  999.0,  999.0,  999.0,  999.0,  999.0,  999.0,  999.0,  999.0,  999.0,  999.0,  999.0,  999.0,  999.0
2008/12/08 20:20,   -0.3,   -0.5,   -0.7,  999.0,  999.0,  999.0,   -0.3,   -0.2,  999.0,  999.0,  999.0,  999.0,  999.0,  999.0,  999.0,  999.0,  999.0,  999.0,  999.0,  999.0,  999.0,  999.0,  999.0,  999.0,  999.0,  999.0,  999.0,  999.0,  999.0,  999.0
2008/12/08 20:30,   -0.3,   -0.5,   -0.6,  999.0,  999.0,  999.0,   -0.3,   -0.3,   -3.8,   -3.5,   -3.0,   -3.0,   -3.1,   -3.1,   -2.2,   -2.6,  999.0,  999.0,  999.0,  999.0,  999.0,  999.0,  999.0,  999.0,  999.0,  999.0,  999.0,  999.0,  999.0,  999.0
2008/12/08 20:40,  999.0,   -0.5,   -0.8,   -3.8,  999.0,  999.0,   -0.3,  999.0,   -2.8,   -2.9,   -3.3,   -3.4,   -2.9,   -2.9,   -2.8,   -2.3,   -1.7,  999.0,  999.0,  999.0,  999.0,  999.0,  999.0,  999.0,  999.0,  999.0,  999.0,  999.0,  999.0,  999.0
2008/12/08 20:50,   -0.3,   -0.4,   -0.8,   -3.2,   -3.2,  999.0,   -0.3,   -0.2,  999.0,  999.0,  999.0,  999.0,  999.0,  999.0,  999.0,  999.0,  999.0,  999.0,  999.0,  999.0,  999.0,  999.0,  999.0,   -1.7,  999.0,  999.0,  999.0,  999.0,  999.0,  999.0
2008/12/08 21:00,  999.0,  999.0,   -0.5,  999.0,  999.0,   -3.1,   -0.2,   -0.5,  999.0,   -3.0,   -2.5,   -2.7,  999.0,  999.0,   -1.9,  999.0,  999.0,  999.0,  999.0,  999.0,  999.0,  999.0,  999.0,   -1.2,  999.0,  999.0,  999.0,  999.0,  999.0,  999.0
2008/12/08 21:10,  999.0,   -0.5,   -0.6,  999.0,  999.0,  999.0,   -0.3,   -0.2,  999.0,  999.0,  999.0,  999.0,  999.0,  999.0,  999.0,  999.0,  999.0,  999.0,  999.0,  999.0,  999.0,  999.0,  999.0,  999.0,   -1.0,  999.0,  999.0,  999.0,  999.0,  999.0
2008/12/08 21:20,  999.0,   -0.4,   -0.6,  999.0,  999.0,   -1.1,   -0.3,   -0.2,  999.0,  999.0,  999.0,  999.0,  999.0,  999.0,  999.0,  999.0,  999.0,  999.0,  999.0,  999.0,  999.0,  999.0,  999.0,  999.0,  999.0,  999.0,  999.0,  999.0,  999.0,  999.0
2008/12/08 21:30,  999.0,   -0.4,   -0.6,  999.0,  999.0,  999.0,   -0.3,   -0.3,  999.0,  999.0,  999.0,  999.0,  999.0,  999.0,  999.0,  999.0,  999.0,  999.0,  999.0,  999.0,  999.0,  999.0,  999.0,  999.0,  999.0,  999.0,  999.0,  999.0,  999.0,  999.0
2008/12/08 21:40,  999.0,   -0.4,   -0.9,  999.0,   -1.4,   -3.2,    0.2,   -0.2,   -1.4,   -1.1,  999.0,  999.0,  999.0,  999.0,  999.0,  999.0,  999.0,  999.0,  999.0,  999.0,  999.0,  999.0,  999.0,  999.0,  999.0,  999.0,  999.0,  999.0,   -1.1,  999.0
2008/12/08 21:50,   -0.3,   -0.4,   -0.7,  999.0,  999.0,  999.0,   -0.2,   -0.3,  999.0,   -0.5,  999.0,  999.0,  999.0,  999.0,  999.0,  999.0,  999.0,  999.0,  999.0,  999.0,  999.0,  999.0,  999.0,  999.0,  999.0,  999.0,  999.0,  999.0,  999.0,  999.0
2008/12/08 22:00,  999.0,   -0.4,   -0.4,  999.0,  999.0,  999.0,   -0.3,   -0.3,  999.0,   -2.1,  999.0,  999.0,  999.0,  999.0,  999.0,  999.0,  999.0,  999.0,   -0.3,  999.0,  999.0,  999.0,  999.0,  999.0,  999.0,  999.0,  999.0,  999.0,  999.0,  999.0
2008/12/08 22:10,   -0.3,   -0.4,   -0.5,  999.0,  999.0,  999.0,   -0.3,   -0.1,  999.0,  999.0,  999.0,  999.0,  999.0,  999.0,   -0.3,  999.0,  999.0,  999.0,  999.0,  999.0,  999.0,  999.0,  999.0,  999.0,  999.0,  999.0,  999.0,  999.0,  999.0,  999.0
2008/12/08 22:20,   -0.3,   -0.4,   -0.9,  999.0,  999.0,  999.0,   -0.3,   -0.3,   -0.7,    0.2,  999.0,  999.0,  999.0,  999.0,  999.0,  999.0,  999.0,  999.0,  999.0,  999.0,  999.0,  999.0,  999.0,  999.0,  999.0,  999.0,  999.0,  999.0,  999.0,  999.0
2008/12/08 22:30,  999.0,   -0.4,  999.0,  999.0,  999.0,  999.0,   -0.3,   -0.3,  999.0,   -0.0,  999.0,  999.0,  999.0,  999.0,  999.0,  999.0,  999.0,  999.0,  999.0,  999.0,  999.0,  999.0,  999.0,  999.0,  999.0,  999.0,  999.0,  999.0,  999.0,  999.0
2008/12/08 22:40,   -0.3,   -0.4,   -0.6,  999.0,  999.0,  999.0,   -0.3,   -0.3,   -0.4,  999.0,  999.0,  999.0,  999.0,  999.0,  999.0,  999.0,  999.0,  999.0,  999.0,  999.0,  999.0,  999.0,  999.0,  999.0,  999.0,  999.0,  999.0,  999.0,  999.0,   -0.0
2008/12/08 22:50,   -0.3,   -0.4,   -0.8,  999.0,  999.0,   -0.5,   -0.2,   -0.3,  999.0,    0.1,  999.0,  999.0,  999.0,  999.0,  999.0,  999.0,  999.0,  999.0,  999.0,  999.0,  999.0,  999.0,  999.0,  999.0,  999.0,  999.0,  999.0,  999.0,  999.0,  999.0
2008/12/08 23:00,   -0.3,   -0.4,   -0.7,  999.0,  999.0,  999.0,   -0.3,   -0.3,  999.0,  999.0,  999.0,  999.0,  999.0,  999.0,  999.0,  999.0,  999.0,  999.0,  999.0,  999.0,  999.0,  999.0,  999.0,  999.0,  999.0,  999.0,  999.0,  999.0,  999.0,  999.0
2008/12/08 23:10,  999.0,   -0.4,   -0.5,  999.0,  999.0,  999.0,   -0.3,   -0.3,  999.0,  999.0,  999.0,  999.0,  999.0,  999.0,  999.0,  999.0,  999.0,  999.0,  999.0,  999.0,  999.0,  999.0,  999.0,  999.0,  999.0,  999.0,  999.0,  999.0,  999.0,  999.0
2008/12/08 23:20,   -0.3,   -0.4,   -0.7,  999.0,  999.0,   -0.1,   -0.2,   -0.3,  999.0,   -0.2,   -0.3,  999.0,  999.0,  999.0,  999.0,  999.0,  999.0,  999.0,  999.0,  999.0,  999.0,  999.0,  999.0,  999.0,  999.0,  999.0,  999.0,  999.0,  999.0,  999.0
2008/12/08 23:30,   -0.3,   -0.4,   -0.6,  999.0,   -0.1,  999.0,   -0.2,   -0.4,  999.0,    0.0,  999.0,  999.0,  999.0,  999.0,  999.0,  999.0,  999.0,  999.0,  999.0,  999.0,  999.0,  999.0,  999.0,  999.0,  999.0,  999.0,  999.0,  999.0,  999.0,  999.0
2008/12/08 23:40,  999.0,   -0.4,  999.0,  999.0,  999.0,  999.0,   -0.3,   -0.3,    0.2,  999.0,   -0.6,   -1.0,  999.0,  999.0,  999.0,  999.0,  999.0,  999.0,  999.0,  999.0,  999.0,  999.0,  999.0,  999.0,  999.0,  999.0,  999.0,  999.0,   -0.4,  999.0
2008/12/08 23:50,  999.0,   -0.4,   -0.4,  999.0,  999.0,  999.0,   -0.2,   -0.3,    0.0,  999.0,  999.0,  999.0,  999.0,  999.0,  999.0,  999.0,  999.0,  999.0,  999.0,  999.0,  999.0,  999.0,  999.0,  999.0,  999.0,  999.0,  999.0,  999.0,  999.0,  999.0
